Orbital Elements at Epoch 2459200.5 (2020-Dec-17.0) TDB
Reference: JPL 18 (heliocentric ecliptic J2000)
Element | Value | Uncertainty (1-sigma) | Units |
e | .2172910859740595 | 4.4335e-08 | |
a | 2.426308060354589 | 9.5719e-09 | au |
q | 1.899092947012526 | 1.094e-07 | au |
i | 4.858302404886 | 5.7635e-06 | deg |
node | 173.888373586125 | 4.8165e-05 | deg |
peri | 145.7076293713914 | 5.0418e-05 | deg |
M | 343.8629509379194 | 1.3518e-05 | deg |
tp | 2459262.378383104656 (2021-Feb-16.87838310) | 5.1961e-05 | TDB |
period | 1380.439374756657 3.78 | 8.1689e-06 2.237e-08 | d yr |
n | .2607865340435255 | 1.5432e-09 | deg/d |
Q | 2.953523173696652 | 1.1652e-08 | au |
|
| | Orbit Determination Parameters
Additional Information
|